This demonstration page uses our WeatherBlox Daily Observations layout. Learn more.

Left ArrowRight Arrow

Hourly Observations for December 14, 2017

Temp ( °F °C ) Dew Point ( °F °C ) Humidity (%) Winds ( mph kmh ) Pressure ( in mb ) Visibility ( mi km ) Precip ( " mm )
12:15 am 00:15 Cloudy 34 1 18 -8 51 51 S 7 11 29.59 1002 10 16 N/A
12:35 am 00:35 Cloudy 34 1 18 -8 51 51 S 7 11 29.56 1001 10 16 N/A
12:55 am 00:55 Cloudy 34 1 18 -8 51 51 S 6 9 29.56 1001 10 16 N/A
1:15 am 01:15 Cloudy 34 1 18 -8 51 51 S 7 11 29.56 1001 10 16 N/A
1:35 am 01:35 Mostly Cloudy 32 undefined 18 -8 55 55 S 7 11 29.56 1001 10 16 N/A
1:55 am 01:55 Mostly Cloudy 32 undefined 18 -8 55 55 S 8 13 29.53 1000 10 16 N/A
2:15 am 02:15 Mostly Cloudy 32 undefined 18 -8 55 55 S 7 11 29.53 1000 10 16 N/A
2:35 am 02:35 Mostly Cloudy 32 undefined 19 -7 60 60 SSW 6 9 29.53 1000 10 16 N/A
2:55 am 02:55 Cloudy 32 undefined 19 -7 60 60 S 5 7 29.53 1000 10 16 N/A
3:15 am 03:15 Cloudy 32 undefined 19 -7 60 60 SSW 6 9 29.53 1000 10 16 N/A
3:35 am 03:35 Mostly Cloudy 32 undefined 19 -7 60 60 SSW 3 6 29.53 1000 10 16 N/A
3:50 am 03:50 Mostly Cloudy 32 undefined 19 -7 60 60 SSW 3 6 29.53 1000 10 16 N/A
4:15 am 04:15 Clear 32 undefined 19 -7 60 60 W 3 6 29.53 1000 10 16 N/A
4:35 am 04:35 Partly Cloudy 30 -1 19 -7 64 64 N N/A 29.53 1000 10 16 N/A
4:55 am 04:55 Mostly Cloudy 30 -1 21 -6 69 69 N N/A 29.56 1001 10 16 N/A
5:15 am 05:15 Cloudy 32 undefined 21 -6 64 64 W 6 9 29.56 1001 10 16 N/A
5:35 am 05:35 Cloudy 32 undefined 21 -6 64 64 WSW 8 13 29.59 1002 10 16 N/A
5:55 am 05:55 Cloudy 34 1 21 -6 60 60 WSW 7 11 29.59 1002 10 16 N/A
6:15 am 06:15 Cloudy 34 1 21 -6 60 60 W 6 9 29.62 1003 10 16 N/A
6:35 am 06:35 Cloudy 32 undefined 21 -6 64 64 W 5 7 29.62 1003 10 16 N/A
6:55 am 06:55 Mostly Cloudy 32 undefined 21 -6 64 64 SW 3 6 29.65 1004 10 16 N/A
7:15 am 07:15 Mostly Cloudy 32 undefined 21 -6 64 64 SW 3 6 29.65 1004 10 16 N/A
7:35 am 07:35 Partly Cloudy 32 undefined 23 -5 69 69 WSW 3 6 29.65 1004 10 16 N/A
7:55 am 07:55 Partly Cloudy 37 3 28 -2 70 70 WNW 18 30 29.68 1005 10 16 N/A
8:15 am 08:15 Partly Cloudy 41 5 28 -2 61 61 WNW 22 35 29.71 1006 10 16 N/A
8:35 am 08:35 Mostly Cloudy 41 5 28 -2 61 61 NW 16 26 29.74 1007 10 16 N/A
8:55 am 08:55 Cloudy 41 5 28 -2 61 61 NW 12 19 29.77 1008 10 16 N/A
9:15 am 09:15 Cloudy 41 5 28 -2 61 61 NW 14 22 29.77 1008 10 16 N/A
9:35 am 09:35 Cloudy 41 5 28 -2 61 61 NNW 16 26 29.80 1009 10 16 N/A
9:55 am 09:55 Cloudy 41 5 28 -2 61 61 NW 17 28 29.80 1009 10 16 N/A
10:15 am 10:15 Windy with Snow Likely 37 3 27 -3 65 65 NNW 23 37 29.83 1010 10 16 N/A
10:35 am 10:35 Cloudy 37 3 27 -3 65 65 N 24 39 29.85 1011 10 16 N/A
10:55 am 10:55 Cloudy 36 2 23 -5 60 60 N 16 26 29.91 1013 10 16 N/A
11:15 am 11:15 Cloudy 36 2 23 -5 60 60 NW 18 30 29.91 1013 10 16 N/A
11:35 am 11:35 Cloudy 37 3 21 -6 52 52 N 16 26 29.91 1013 10 16 N/A
11:55 am 11:55 Cloudy 36 2 21 -6 56 56 NNW 13 20 29.91 1013 10 16 N/A
12:15 pm 12:15 Cloudy 37 3 21 -6 52 52 N 10 17 29.94 1014 10 16 N/A
12:35 pm 12:35 Cloudy 37 3 21 -6 52 52 NNW 16 26 29.91 1013 10 16 N/A
12:55 pm 12:55 Cloudy 37 3 21 -6 52 52 N 12 19 29.91 1013 10 16 N/A
1:15 pm 13:15 Cloudy 39 4 21 -6 48 48 N 10 17 29.94 1014 10 16 N/A
1:35 pm 13:35 Mostly Cloudy 41 5 21 -6 45 45 N 16 26 29.94 1014 10 16 N/A
1:55 pm 13:55 Mostly Cloudy 39 4 21 -6 48 48 N 13 20 29.94 1014 10 16 N/A
2:15 pm 14:15 Partly Cloudy 39 4 21 -6 48 48 NNW 15 24 29.94 1014 10 16 N/A
2:35 pm 14:35 Sunny 37 3 21 -6 52 52 NNW 10 17 29.94 1014 10 16 N/A
2:55 pm 14:55 Sunny 37 3 21 -6 52 52 NW 14 22 29.97 1015 10 16 N/A
3:15 pm 15:15 Sunny 37 3 21 -6 52 52 NNW 13 20 29.97 1015 10 16 N/A
3:35 pm 15:35 Sunny 37 3 21 -6 52 52 NNW 16 26 29.97 1015 10 16 N/A
3:55 pm 15:55 Sunny 36 2 21 -6 56 56 NNW 12 19 30.00 1016 10 16 N/A
4:15 pm 16:15 Sunny 36 2 21 -6 56 56 N 12 19 30.00 1016 10 16 N/A
4:35 pm 16:35 Sunny 36 2 21 -6 56 56 N 10 17 30.00 1016 10 16 N/A
4:55 pm 16:55 Clear 34 1 21 -6 60 60 NNW 10 17 30.00 1016 10 16 N/A
5:15 pm 17:15 Clear 34 1 21 -6 60 60 NNW 15 24 30.03 1017 10 16 N/A
5:35 pm 17:35 Clear 34 1 21 -6 60 60 NNW 12 19 30.03 1017 10 16 N/A
5:55 pm 17:55 Clear 34 1 21 -6 60 60 NNW 13 20 30.03 1017 10 16 N/A
6:15 pm 18:15 Clear 34 1 21 -6 60 60 NNE 6 9 30.06 1018 10 16 N/A
6:35 pm 18:35 Clear 34 1 21 -6 60 60 N 7 11 30.09 1019 10 16 N/A
6:55 pm 18:55 Clear 32 undefined 21 -6 64 64 N 8 13 30.09 1019 10 16 N/A
7:15 pm 19:15 Clear 32 undefined 19 -7 60 60 N 12 19 30.09 1019 10 16 N/A
7:35 pm 19:35 Clear 32 undefined 19 -7 60 60 N 10 17 30.09 1019 10 16 N/A
7:55 pm 19:55 Clear 32 undefined 19 -7 60 60 N 9 15 30.12 1020 10 16 N/A
8:15 pm 20:15 Clear 32 undefined 19 -7 60 60 N 12 19 30.12 1020 10 16 N/A
8:35 pm 20:35 Clear 32 undefined 18 -8 55 55 N 14 22 30.12 1020 10 16 N/A
8:55 pm 20:55 Clear 32 undefined 18 -8 55 55 NNE 13 20 30.12 1020 10 16 N/A
9:15 pm 21:15 Clear 32 undefined 18 -8 55 55 NNE 9 15 30.12 1020 10 16 N/A
9:35 pm 21:35 Clear 32 undefined 16 -9 51 51 N 8 13 30.12 1020 10 16 N/A
9:55 pm 21:55 Clear 32 undefined 16 -9 51 51 NNE 5 7 30.12 1020 10 16 N/A
10:15 pm 22:15 Clear 32 undefined 16 -9 51 51 N 9 15 30.12 1020 10 16 N/A
10:35 pm 22:35 Clear 32 undefined 18 -8 55 55 NE 7 11 30.15 1021 10 16 N/A
10:55 pm 22:55 Clear 32 undefined 18 -8 55 55 N 7 11 30.15 1021 10 16 N/A
11:15 pm 23:15 Clear 30 -1 16 -9 55 55 NNE 5 7 30.15 1021 10 16 N/A
11:35 pm 23:35 Clear 30 -1 16 -9 55 55 NNE 5 7 30.15 1021 10 16 N/A
11:55 pm 23:55 Clear 30 -1 14 -10 51 51 NE 3 6 30.15 1021 10 16 N/A

Powered by AerisWeather